Location: Newark
(40.3667°N, 3.7500°W)
Time: 06:00:19
(UTC+00:00)

OTV 5 (USA 277) - Pass Details

Date: 30 October 2019
Orbit: 310 x 324 km, 54.5° (Epoch: 17 October)

Event Time Altitude Azimuth Distance (km) Brightness Sun altitude
Rises 19:03:23 0° 261° (W) 2,055 ? -21.2°
Reaches altitude 10° 19:05:42 10° 281° (W) 1,230 ? -21.6°
Enters shadow 19:07:33 19° 323° (NW) 866 ? -22.0°
